COSMOS 2471 (701K)

Last updated on July 6, 2021, 3:39 p.m. UTC

1 37372U 11009A   21186.79884719 -.00000050  00000-0  00000-0 0  9990
2 37372  65.9368  14.9453 0014526 225.3064  83.1818  2.13052383 80573
UTC
Height (km)
Latitude
Longitude
Inclination
Orbital Period
UTC large
Height (km)
Speed (km/s)
/
Latitude / Longitude
Inclination (degrees)
Orbital Period (minutes)
Azimuth
Elevation
Range (km)
Doppler Factor
iOS Compass Heading
iOS Angle